Time,TemperatureF,DewpointF,PressureIn,WindDirection,WindDirectionDegrees,WindSpeedMPH,WindSpeedGustMPH,Humidity,HourlyPrecipIn,Conditions,Clouds,dailyrainin,SolarRadiationWatts/m^2,SoftwareType,DateUTC
2013-10-18 00:01:00,75.0,71.9,29.97,ESE,115,1.0,6.0,90,0.00,,,0.00,0,Wunderground v.1.15,2013-10-18 04:01:00,
2013-10-18 00:02:00,75.0,71.9,29.97,ESE,115,1.0,6.0,90,0.00,,,0.00,0,Wunderground v.1.15,2013-10-18 04:02:00,
2013-10-18 00:04:00,74.9,71.8,29.97,ESE,115,1.0,6.0,90,0.00,,,0.00,0,Wunderground v.1.15,2013-10-18 04:04:00,
2013-10-18 00:07:00,75.0,71.9,29.97,ESE,115,0.0,6.0,90,0.00,,,0.00,0,Wunderground v.1.15,2013-10-18 04:07:00,
2013-10-18 00:08:00,74.9,71.8,29.97,ESE,115,0.0,6.0,90,0.00,,,0.00,0,Wunderground v.1.15,2013-10-18 04:08:00,
2013-10-18 00:13:00,74.8,71.7,29.97,ESE,115,1.0,6.0,90,0.00,,,0.00,0,Wunderground v.1.15,2013-10-18 04:13:00,
2013-10-18 00:19:00,74.7,71.6,29.97,ESE,115,1.0,6.0,90,0.00,,,0.00,0,Wunderground v.1.15,2013-10-18 04:19:00,
2013-10-18 00:25:00,74.6,71.5,29.97,ESE,115,0.0,6.0,90,0.00,,,0.00,0,Wunderground v.1.15,2013-10-18 04:25:00,
2013-10-18 00:31:00,74.4,71.6,29.97,ESE,115,1.0,6.0,91,0.00,,,0.00,0,Wunderground v.1.15,2013-10-18 04:31:00,
2013-10-18 00:36:00,74.3,71.5,29.97,ESE,115,2.0,6.0,91,0.00,,,0.00,0,Wunderground v.1.15,2013-10-18 04:36:00,
2013-10-18 00:42:00,74.2,71.4,29.97,ESE,115,1.0,6.0,91,0.00,,,0.00,0,Wunderground v.1.15,2013-10-18 04:42:00,
2013-10-18 00:47:00,74.1,71.3,29.96,ESE,115,0.0,6.0,91,0.00,,,0.00,0,Wunderground v.1.15,2013-10-18 04:47:00,
2013-10-18 00:53:00,74.0,71.2,29.96,ESE,115,0.0,6.0,91,0.00,,,0.00,0,Wunderground v.1.15,2013-10-18 04:53:00,
2013-10-18 00:58:00,74.0,71.2,29.96,ESE,115,0.0,6.0,91,0.00,,,0.00,0,Wunderground v.1.15,2013-10-18 04:58:00,
2013-10-18 01:04:00,73.9,71.4,29.96,ESE,115,0.0,6.0,92,0.00,,,0.00,0,Wunderground v.1.15,2013-10-18 05:04:00,
2013-10-18 01:10:00,73.8,71.3,29.96,ESE,115,0.0,6.0,92,0.00,,,0.00,0,Wunderground v.1.15,2013-10-18 05:10:00,
2013-10-18 01:16:00,73.8,71.3,29.96,ESE,115,0.0,6.0,92,0.00,,,0.00,0,Wunderground v.1.15,2013-10-18 05:16:00,
2013-10-18 01:21:00,73.7,71.2,29.96,ESE,115,0.0,6.0,92,0.00,,,0.00,0,Wunderground v.1.15,2013-10-18 05:21:00,
2013-10-18 01:26:00,73.5,71.0,29.96,ESE,115,0.0,6.0,92,0.00,,,0.00,0,Wunderground v.1.15,2013-10-18 05:26:00,
2013-10-18 01:32:00,73.5,71.4,29.96,ESE,115,1.0,6.0,93,0.00,,,0.00,0,Wunderground v.1.15,2013-10-18 05:32:00,
2013-10-18 01:38:00,74.3,72.5,29.96,ESE,115,3.0,6.0,94,0.00,,,0.00,0,Wunderground v.1.15,2013-10-18 05:38:00,
2013-10-18 01:44:00,74.8,72.6,29.96,ESE,115,3.0,6.0,93,0.00,,,0.00,0,Wunderground v.1.15,2013-10-18 05:44:00,
2013-10-18 01:49:00,75.0,72.8,29.96,ESE,115,2.0,6.0,93,0.00,,,0.00,0,Wunderground v.1.15,2013-10-18 05:49:00,
2013-10-18 01:55:00,75.1,72.6,29.96,ESE,115,2.0,6.0,92,0.00,,,0.00,0,Wunderground v.1.15,2013-10-18 05:55:00,
2013-10-18 02:01:00,75.2,72.7,29.96,ESE,115,2.0,6.0,92,0.00,,,0.00,0,Wunderground v.1.15,2013-10-18 06:01:00,
2013-10-18 02:06:00,75.0,72.2,29.96,ESE,115,1.0,6.0,91,0.00,,,0.00,0,Wunderground v.1.15,2013-10-18 06:06:00,
2013-10-18 02:12:00,74.7,71.6,29.96,ESE,115,1.0,6.0,90,0.00,,,0.00,0,Wunderground v.1.15,2013-10-18 06:12:00,
2013-10-18 02:17:00,74.3,71.5,29.96,ESE,115,0.0,6.0,91,0.00,,,0.00,0,Wunderground v.1.15,2013-10-18 06:17:00,
2013-10-18 02:23:00,74.1,71.3,29.96,ESE,115,0.0,6.0,91,0.00,,,0.00,0,Wunderground v.1.15,2013-10-18 06:23:00,
2013-10-18 02:29:00,73.9,71.1,29.96,ESE,115,1.0,6.0,91,0.00,,,0.00,0,Wunderground v.1.15,2013-10-18 06:29:00,
2013-10-18 02:34:00,74.0,71.2,29.96,ESE,115,1.0,6.0,91,0.00,,,0.00,0,Wunderground v.1.15,2013-10-18 06:34:00,
2013-10-18 02:40:00,73.6,70.8,29.96,ESE,115,0.0,6.0,91,0.00,,,0.00,0,Wunderground v.1.15,2013-10-18 06:40:00,
2013-10-18 02:45:00,73.3,70.5,29.96,ESE,115,0.0,6.0,91,0.00,,,0.00,0,Wunderground v.1.15,2013-10-18 06:45:00,
2013-10-18 02:51:00,73.1,70.6,29.96,ESE,115,0.0,6.0,92,0.00,,,0.00,0,Wunderground v.1.15,2013-10-18 06:51:00,
2013-10-18 02:57:00,72.9,70.4,29.96,ESE,115,0.0,6.0,92,0.00,,,0.00,0,Wunderground v.1.15,2013-10-18 06:57:00,
2013-10-18 03:03:00,72.6,70.1,29.96,ESE,115,0.0,6.0,92,0.00,,,0.00,0,Wunderground v.1.15,2013-10-18 07:03:00,
2013-10-18 03:08:00,72.6,70.5,29.96,ESE,115,0.0,6.0,93,0.00,,,0.00,0,Wunderground v.1.15,2013-10-18 07:08:00,
2013-10-18 03:14:00,72.5,70.4,29.96,ESE,115,0.0,6.0,93,0.00,,,0.00,0,Wunderground v.1.15,2013-10-18 07:14:00,
2013-10-18 03:20:00,72.4,70.3,29.96,ESE,115,0.0,6.0,93,0.00,,,0.00,0,Wunderground v.1.15,2013-10-18 07:20:00,
2013-10-18 03:26:00,72.3,70.2,29.96,ESE,115,0.0,6.0,93,0.00,,,0.00,0,Wunderground v.1.15,2013-10-18 07:26:00,
2013-10-18 03:31:00,72.3,70.2,29.95,ESE,115,0.0,6.0,93,0.00,,,0.00,0,Wunderground v.1.15,2013-10-18 07:31:00,
2013-10-18 03:37:00,72.2,70.4,29.96,ESE,115,1.0,6.0,94,0.00,,,0.00,0,Wunderground v.1.15,2013-10-18 07:37:00,
2013-10-18 03:43:00,72.2,70.4,29.95,ESE,115,1.0,6.0,94,0.00,,,0.00,0,Wunderground v.1.15,2013-10-18 07:43:00,
2013-10-18 03:48:00,72.3,70.5,29.96,ESE,115,0.0,6.0,94,0.00,,,0.00,0,Wunderground v.1.15,2013-10-18 07:48:00,
2013-10-18 03:54:00,72.3,70.5,29.96,ESE,115,0.0,6.0,94,0.00,,,0.00,0,Wunderground v.1.15,2013-10-18 07:54:00,
2013-10-18 04:00:00,72.2,70.4,29.96,ESE,115,0.0,6.0,94,0.00,,,0.00,0,Wunderground v.1.15,2013-10-18 08:00:00,
2013-10-18 04:06:00,72.1,70.3,29.96,ESE,115,0.0,6.0,94,0.00,,,0.00,0,Wunderground v.1.15,2013-10-18 08:06:00,
2013-10-18 04:11:00,72.1,70.3,29.96,ESE,115,0.0,6.0,94,0.00,,,0.00,0,Wunderground v.1.15,2013-10-18 08:11:00,
2013-10-18 04:17:00,72.0,70.2,29.95,ESE,115,0.0,6.0,94,0.00,,,0.00,0,Wunderground v.1.15,2013-10-18 08:17:00,
2013-10-18 04:23:00,71.9,70.1,29.95,ESE,115,0.0,6.0,94,0.00,,,0.00,0,Wunderground v.1.15,2013-10-18 08:23:00,
2013-10-18 04:29:00,71.9,70.1,29.95,ESE,115,1.0,6.0,94,0.00,,,0.00,0,Wunderground v.1.15,2013-10-18 08:29:00,
2013-10-18 04:34:00,73.1,71.6,29.95,ESE,115,2.0,6.0,95,0.00,,,0.00,0,Wunderground v.1.15,2013-10-18 08:34:00,
2013-10-18 04:40:00,73.9,72.4,29.95,ESE,115,2.0,6.0,95,0.00,,,0.00,0,Wunderground v.1.15,2013-10-18 08:40:00,
2013-10-18 04:46:00,74.2,72.7,29.95,ESE,115,2.0,6.0,95,0.00,,,0.00,0,Wunderground v.1.15,2013-10-18 08:46:00,
2013-10-18 04:52:00,74.3,72.8,29.96,ESE,115,3.0,6.0,95,0.00,,,0.00,0,Wunderground v.1.15,2013-10-18 08:52:00,
2013-10-18 04:58:00,74.3,72.5,29.96,ESE,115,3.0,6.0,94,0.00,,,0.00,0,Wunderground v.1.15,2013-10-18 08:58:00,
2013-10-18 05:04:00,74.5,72.7,29.96,ESE,115,2.0,6.0,94,0.00,,,0.00,0,Wunderground v.1.15,2013-10-18 09:04:00,
2013-10-18 05:10:00,74.3,72.1,29.96,ESE,115,3.0,6.0,93,0.00,,,0.00,0,Wunderground v.1.15,2013-10-18 09:10:00,
2013-10-18 05:15:00,74.5,72.7,29.96,ESE,115,3.0,6.0,94,0.00,,,0.00,0,Wunderground v.1.15,2013-10-18 09:15:00,
2013-10-18 05:21:00,74.5,72.7,29.96,ESE,115,3.0,6.0,94,0.00,,,0.00,0,Wunderground v.1.15,2013-10-18 09:21:00,
2013-10-18 05:27:00,74.2,72.0,29.96,ESE,115,2.0,6.0,93,0.00,,,0.00,0,Wunderground v.1.15,2013-10-18 09:27:00,
2013-10-18 05:33:00,74.0,71.8,29.96,ESE,115,2.0,6.0,93,0.00,,,0.00,0,Wunderground v.1.15,2013-10-18 09:33:00,
2013-10-18 05:39:00,73.9,72.1,29.97,ESE,115,3.0,6.0,94,0.00,,,0.00,0,Wunderground v.1.15,2013-10-18 09:39:00,
2013-10-18 05:45:00,74.1,72.3,29.97,ESE,115,4.0,6.0,94,0.00,,,0.00,0,Wunderground v.1.15,2013-10-18 09:45:00,
2013-10-18 05:51:00,74.2,72.4,29.97,ESE,115,3.0,6.0,94,0.00,,,0.00,0,Wunderground v.1.15,2013-10-18 09:51:00,
2013-10-18 05:57:00,73.8,71.6,29.97,ESE,115,2.0,6.0,93,0.00,,,0.00,0,Wunderground v.1.15,2013-10-18 09:57:00,
2013-10-18 06:02:00,73.5,71.7,29.97,ESE,115,1.0,6.0,94,0.00,,,0.00,0,Wunderground v.1.15,2013-10-18 10:02:00,
2013-10-18 06:08:00,73.3,71.2,29.97,ESE,115,1.0,6.0,93,0.00,,,0.00,0,Wunderground v.1.15,2013-10-18 10:08:00,
2013-10-18 06:14:00,72.9,70.8,29.98,ESE,115,1.0,6.0,93,0.00,,,0.00,0,Wunderground v.1.15,2013-10-18 10:14:00,
2013-10-18 06:20:00,72.6,70.5,29.98,ESE,115,1.0,1.0,93,0.00,,,0.00,0,Wunderground v.1.15,2013-10-18 10:20:00,
2013-10-18 06:25:00,72.3,70.2,29.98,ESE,115,0.0,6.0,93,0.00,,,0.00,0,Wunderground v.1.15,2013-10-18 10:25:00,
2013-10-18 06:31:00,72.1,70.3,29.98,ESE,115,0.0,6.0,94,0.00,,,0.00,0,Wunderground v.1.15,2013-10-18 10:31:00,
2013-10-18 06:37:00,71.9,70.1,29.98,ESE,115,0.0,6.0,94,0.00,,,0.00,0,Wunderground v.1.15,2013-10-18 10:37:00,
2013-10-18 06:43:00,71.8,70.0,29.98,ESE,115,0.0,6.0,94,0.00,,,0.00,0,Wunderground v.1.15,2013-10-18 10:43:00,
2013-10-18 06:49:00,71.8,70.0,29.98,ESE,115,0.0,6.0,94,0.00,,,0.00,0,Wunderground v.1.15,2013-10-18 10:49:00,
2013-10-18 06:55:00,71.8,70.0,29.98,ESE,115,0.0,6.0,94,0.00,,,0.00,0,Wunderground v.1.15,2013-10-18 10:55:00,
2013-10-18 07:01:00,71.7,70.2,29.98,ESE,115,0.0,6.0,95,0.00,,,0.00,0,Wunderground v.1.15,2013-10-18 11:01:00,
2013-10-18 07:06:00,71.7,70.2,29.99,ESE,115,0.0,6.0,95,0.00,,,0.00,0,Wunderground v.1.15,2013-10-18 11:06:00,
2013-10-18 07:12:00,71.7,70.2,29.99,ESE,115,0.0,6.0,95,0.00,,,0.00,0,Wunderground v.1.15,2013-10-18 11:12:00,
2013-10-18 07:18:00,71.6,70.1,29.99,ESE,115,0.0,6.0,95,0.00,,,0.00,0,Wunderground v.1.15,2013-10-18 11:18:00,
2013-10-18 07:24:00,71.6,70.1,29.99,ESE,115,0.0,6.0,95,0.00,,,0.00,0,Wunderground v.1.15,2013-10-18 11:24:00,
2013-10-18 07:29:00,71.5,70.0,29.99,ESE,115,0.0,6.0,95,0.00,,,0.00,5,Wunderground v.1.15,2013-10-18 11:29:00,
2013-10-18 07:35:00,71.4,69.9,29.99,ESE,115,0.0,6.0,95,0.00,,,0.00,9,Wunderground v.1.15,2013-10-18 11:35:00,
2013-10-18 07:41:00,71.4,69.9,29.99,SSW,200,1.0,6.0,95,0.00,,,0.00,12,Wunderground v.1.15,2013-10-18 11:41:00,
2013-10-18 07:47:00,71.5,70.0,30.00,SSW,200,1.0,6.0,95,0.00,,,0.00,16,Wunderground v.1.15,2013-10-18 11:47:00,
2013-10-18 07:53:00,71.7,70.2,30.00,SSW,200,1.0,6.0,95,0.00,,,0.00,21,Wunderground v.1.15,2013-10-18 11:53:00,
2013-10-18 07:59:00,71.8,70.3,30.00,SSW,200,0.0,6.0,95,0.00,,,0.00,25,Wunderground v.1.15,2013-10-18 11:59:00,
2013-10-18 08:05:00,72.0,70.5,30.00,SSW,200,0.0,6.0,95,0.00,,,0.01,39,Wunderground v.1.15,2013-10-18 12:05:00,
2013-10-18 08:10:00,72.2,71.0,30.01,SSW,200,0.0,6.0,96,0.00,,,0.01,98,Wunderground v.1.15,2013-10-18 12:10:00,
2013-10-18 08:15:00,72.6,71.4,30.01,SSW,200,0.0,6.0,96,0.00,,,0.01,118,Wunderground v.1.15,2013-10-18 12:15:00,
2013-10-18 08:21:00,73.4,72.2,30.01,SSW,200,0.0,6.0,96,0.00,,,0.01,141,Wunderground v.1.15,2013-10-18 12:21:00,
2013-10-18 08:27:00,74.3,73.1,30.01,SSW,200,0.0,6.0,96,0.00,,,0.01,153,Wunderground v.1.15,2013-10-18 12:27:00,
2013-10-18 08:33:00,75.2,74.0,30.01,SSW,200,0.0,6.0,96,0.00,,,0.01,167,Wunderground v.1.15,2013-10-18 12:33:00,
2013-10-18 08:38:00,75.5,74.0,30.02,SSW,200,1.0,6.0,95,0.00,,,0.01,183,Wunderground v.1.15,2013-10-18 12:38:00,
2013-10-18 08:44:00,75.8,73.9,30.02,SSW,200,1.0,6.0,94,0.00,,,0.01,197,Wunderground v.1.15,2013-10-18 12:44:00,
2013-10-18 08:50:00,76.2,74.0,30.02,SSW,200,0.0,6.0,93,0.00,,,0.01,213,Wunderground v.1.15,2013-10-18 12:50:00,
2013-10-18 08:56:00,76.6,74.1,30.02,SSW,200,1.0,6.0,92,0.00,,,0.01,232,Wunderground v.1.15,2013-10-18 12:56:00,
2013-10-18 09:02:00,76.9,73.7,30.02,SSW,200,2.0,6.0,90,0.00,,,0.01,258,Wunderground v.1.15,2013-10-18 13:02:00,
2013-10-18 09:08:00,77.2,74.0,30.02,SSW,200,2.0,6.0,90,0.00,,,0.01,279,Wunderground v.1.15,2013-10-18 13:08:00,
2013-10-18 09:14:00,77.4,73.9,30.02,SSW,200,3.0,6.0,89,0.00,,,0.01,299,Wunderground v.1.15,2013-10-18 13:14:00,
2013-10-18 09:20:00,77.8,74.3,30.03,SSW,200,3.0,6.0,89,0.00,,,0.01,316,Wunderground v.1.15,2013-10-18 13:20:00,
2013-10-18 09:25:00,78.0,74.2,30.03,SSW,200,2.0,6.0,88,0.00,,,0.01,332,Wunderground v.1.15,2013-10-18 13:25:00,
2013-10-18 09:31:00,78.3,74.5,30.03,SSW,200,3.0,6.0,88,0.00,,,0.01,352,Wunderground v.1.15,2013-10-18 13:31:00,
2013-10-18 09:37:00,78.4,74.2,30.03,SSW,200,3.0,6.0,87,0.00,,,0.01,373,Wunderground v.1.15,2013-10-18 13:37:00,
2013-10-18 09:43:00,78.6,74.4,30.03,SSW,200,3.0,6.0,87,0.00,,,0.01,91,Wunderground v.1.15,2013-10-18 13:43:00,
2013-10-18 09:49:00,78.8,74.3,30.03,SSW,200,3.0,6.0,86,0.00,,,0.01,410,Wunderground v.1.15,2013-10-18 13:49:00,
2013-10-18 09:55:00,79.1,74.5,30.03,SSW,200,3.0,6.0,86,0.00,,,0.01,410,Wunderground v.1.15,2013-10-18 13:55:00,
2013-10-18 10:01:00,79.3,74.4,30.03,SSW,200,3.0,6.0,85,0.00,,,0.01,450,Wunderground v.1.15,2013-10-18 14:01:00,
2013-10-18 10:06:00,79.6,75.0,30.03,SSW,200,2.0,6.0,86,0.00,,,0.01,464,Wunderground v.1.15,2013-10-18 14:06:00,
2013-10-18 10:12:00,79.9,74.6,30.03,SSW,200,3.0,6.0,84,0.00,,,0.01,480,Wunderground v.1.15,2013-10-18 14:12:00,
2013-10-18 10:17:00,80.2,74.9,30.03,SSW,200,3.0,6.0,84,0.00,,,0.01,497,Wunderground v.1.15,2013-10-18 14:17:00,
2013-10-18 10:23:00,80.3,74.7,30.03,SSW,200,4.0,6.0,83,0.00,,,0.01,513,Wunderground v.1.15,2013-10-18 14:23:00,
2013-10-18 10:29:00,80.4,74.8,30.03,SSW,200,4.0,6.0,83,0.00,,,0.01,529,Wunderground v.1.15,2013-10-18 14:29:00,
2013-10-18 10:34:00,80.7,74.7,30.03,SSW,200,4.0,6.0,82,0.00,,,0.01,543,Wunderground v.1.15,2013-10-18 14:34:00,
2013-10-18 10:40:00,80.8,74.4,30.03,SSW,197,4.0,6.0,81,0.00,,,0.01,563,Wunderground v.1.15,2013-10-18 14:40:00,
2013-10-18 10:46:00,81.0,73.9,30.03,SSW,197,3.0,6.0,79,0.00,,,0.01,577,Wunderground v.1.15,2013-10-18 14:46:00,
2013-10-18 10:52:00,81.4,73.5,30.03,SSW,197,3.0,6.0,77,0.00,,,0.01,591,Wunderground v.1.15,2013-10-18 14:52:00,
2013-10-18 10:58:00,81.7,73.8,30.03,SSW,197,3.0,6.0,77,0.00,,,0.01,605,Wunderground v.1.15,2013-10-18 14:58:00,
2013-10-18 11:03:00,82.2,74.7,30.03,SSW,197,2.0,6.0,78,0.00,,,0.01,622,Wunderground v.1.15,2013-10-18 15:03:00,
2013-10-18 11:09:00,82.2,74.3,30.03,SSW,197,3.0,6.0,77,0.00,,,0.01,631,Wunderground v.1.15,2013-10-18 15:09:00,
2013-10-18 11:15:00,82.5,74.6,30.03,SSW,197,2.0,6.0,77,0.00,,,0.01,649,Wunderground v.1.15,2013-10-18 15:15:00,
2013-10-18 11:21:00,82.9,74.2,30.03,SSW,197,2.0,6.0,75,0.00,,,0.01,675,Wunderground v.1.15,2013-10-18 15:21:00,
2013-10-18 11:26:00,83.1,74.4,30.03,SSW,197,3.0,6.0,75,0.00,,,0.01,680,Wunderground v.1.15,2013-10-18 15:26:00,
2013-10-18 11:32:00,83.0,73.9,30.03,SSW,197,3.0,6.0,74,0.00,,,0.01,693,Wunderground v.1.15,2013-10-18 15:32:00,
2013-10-18 11:38:00,83.2,74.8,30.03,SSW,197,2.0,6.0,76,0.00,,,0.01,694,Wunderground v.1.15,2013-10-18 15:38:00,
2013-10-18 11:44:00,83.4,73.8,30.02,SSW,193,2.0,6.0,73,0.00,,,0.01,708,Wunderground v.1.15,2013-10-18 15:44:00,
2013-10-18 11:49:00,83.5,73.5,30.02,SSW,193,3.0,6.0,72,0.00,,,0.01,715,Wunderground v.1.15,2013-10-18 15:49:00,
2013-10-18 11:55:00,83.9,74.3,30.02,SSW,193,3.0,6.0,73,0.00,,,0.01,726,Wunderground v.1.15,2013-10-18 15:55:00,
2013-10-18 12:01:00,83.7,73.3,30.02,South,183,4.0,7.0,71,0.00,,,0.01,737,Wunderground v.1.15,2013-10-18 16:01:00,
2013-10-18 12:06:00,83.4,72.6,30.02,South,182,4.0,7.0,70,0.00,,,0.01,742,Wunderground v.1.15,2013-10-18 16:06:00,
2013-10-18 12:11:00,83.7,72.9,30.01,South,175,3.0,7.0,70,0.00,,,0.01,752,Wunderground v.1.15,2013-10-18 16:11:00,
2013-10-18 12:17:00,83.9,73.1,30.01,SSE,166,4.0,7.0,70,0.00,,,0.01,759,Wunderground v.1.15,2013-10-18 16:17:00,
2013-10-18 12:23:00,84.0,73.2,30.01,South,171,4.0,6.0,70,0.00,,,0.01,770,Wunderground v.1.15,2013-10-18 16:23:00,
2013-10-18 12:29:00,84.5,73.6,30.01,South,184,2.0,6.0,70,0.00,,,0.01,773,Wunderground v.1.15,2013-10-18 16:29:00,
2013-10-18 12:34:00,84.5,72.8,30.01,SSE,163,4.0,8.0,68,0.00,,,0.01,780,Wunderground v.1.15,2013-10-18 16:34:00,
2013-10-18 12:40:00,84.6,72.9,30.00,South,185,3.0,8.0,68,0.00,,,0.01,814,Wunderground v.1.15,2013-10-18 16:40:00,
2013-10-18 12:46:00,84.6,73.3,30.00,South,191,3.0,8.0,69,0.00,,,0.01,816,Wunderground v.1.15,2013-10-18 16:46:00,
2013-10-18 12:51:00,84.5,73.2,30.00,South,191,4.0,6.0,69,0.00,,,0.01,812,Wunderground v.1.15,2013-10-18 16:51:00,
2013-10-18 12:57:00,85.0,74.5,29.99,South,191,2.0,6.0,71,0.00,,,0.01,114,Wunderground v.1.15,2013-10-18 16:57:00,
2013-10-18 13:03:00,85.0,72.4,29.99,South,191,2.0,6.0,66,0.00,,,0.01,833,Wunderground v.1.15,2013-10-18 17:03:00,
2013-10-18 13:09:00,85.1,73.3,29.99,South,191,2.0,6.0,68,0.00,,,0.01,146,Wunderground v.1.15,2013-10-18 17:09:00,
2013-10-18 13:14:00,85.0,72.4,29.98,South,190,3.0,6.0,66,0.00,,,0.01,146,Wunderground v.1.15,2013-10-18 17:14:00,
2013-10-18 13:20:00,85.2,73.4,29.98,South,190,2.0,6.0,68,0.00,,,0.01,853,Wunderground v.1.15,2013-10-18 17:20:00,
2013-10-18 13:26:00,85.5,72.4,29.98,SE,138,3.0,6.0,65,0.00,,,0.01,870,Wunderground v.1.15,2013-10-18 17:26:00,
2013-10-18 13:32:00,85.7,72.1,29.98,SSE,156,4.0,9.0,64,0.00,,,0.01,125,Wunderground v.1.15,2013-10-18 17:32:00,
2013-10-18 13:37:00,85.3,73.1,29.97,SSE,154,5.0,9.0,67,0.00,,,0.01,135,Wunderground v.1.15,2013-10-18 17:37:00,
2013-10-18 13:43:00,85.2,72.1,29.97,SSE,154,3.0,6.0,65,0.00,,,0.01,891,Wunderground v.1.15,2013-10-18 17:43:00,
2013-10-18 13:48:00,85.9,71.8,29.97,SSE,154,1.0,6.0,63,0.00,,,0.01,884,Wunderground v.1.15,2013-10-18 17:48:00,
2013-10-18 13:53:00,86.4,72.8,29.96,SSE,159,2.0,7.0,64,0.00,,,0.01,863,Wunderground v.1.15,2013-10-18 17:53:00,
2013-10-18 13:59:00,86.8,73.2,29.96,South,185,4.0,7.0,64,0.00,,,0.01,896,Wunderground v.1.15,2013-10-18 17:59:00,
2013-10-18 14:05:00,87.2,74.0,29.96,SSW,209,4.0,7.0,65,0.00,,,0.01,891,Wunderground v.1.15,2013-10-18 18:05:00,
2013-10-18 14:11:00,86.7,72.6,29.95,SSW,209,5.0,6.0,63,0.00,,,0.01,176,Wunderground v.1.15,2013-10-18 18:11:00,
2013-10-18 14:17:00,86.3,74.9,29.95,SSW,209,4.0,6.0,69,0.00,,,0.01,185,Wunderground v.1.15,2013-10-18 18:17:00,
2013-10-18 14:22:00,86.0,73.3,29.95,SSW,209,3.0,6.0,66,0.00,,,0.01,156,Wunderground v.1.15,2013-10-18 18:22:00,
2013-10-18 14:28:00,85.6,72.0,29.95,South,180,3.0,6.0,64,0.00,,,0.01,162,Wunderground v.1.15,2013-10-18 18:28:00,
2013-10-18 14:34:00,85.4,71.8,29.95,South,180,4.0,6.0,64,0.00,,,0.01,172,Wunderground v.1.15,2013-10-18 18:34:00,
2013-10-18 14:40:00,85.4,72.3,29.94,South,180,2.0,2.0,65,0.00,,,0.01,148,Wunderground v.1.15,2013-10-18 18:40:00,
2013-10-18 14:46:00,85.7,72.6,29.94,South,180,0.0,6.0,65,0.00,,,0.01,155,Wunderground v.1.15,2013-10-18 18:46:00,
2013-10-18 14:51:00,85.9,72.8,29.94,South,180,0.0,6.0,65,0.00,,,0.01,178,Wunderground v.1.15,2013-10-18 18:51:00,
2013-10-18 14:56:00,86.1,72.5,29.94,South,180,0.0,6.0,64,0.00,,,0.01,195,Wunderground v.1.15,2013-10-18 18:56:00,
2013-10-18 15:01:00,86.1,73.4,29.94,South,180,0.0,6.0,66,0.00,,,0.01,163,Wunderground v.1.15,2013-10-18 19:01:00,
2013-10-18 15:06:00,86.0,73.3,29.94,South,180,1.0,6.0,66,0.00,,,0.01,200,Wunderground v.1.15,2013-10-18 19:06:00,
2013-10-18 15:12:00,85.9,72.8,29.94,South,180,1.0,6.0,65,0.00,,,0.01,232,Wunderground v.1.15,2013-10-18 19:12:00,
2013-10-18 15:18:00,86.1,73.9,29.94,South,180,0.0,6.0,67,0.00,,,0.01,803,Wunderground v.1.15,2013-10-18 19:18:00,
2013-10-18 15:23:00,87.0,73.8,29.94,South,180,1.0,6.0,65,0.00,,,0.01,761,Wunderground v.1.15,2013-10-18 19:23:00,
2013-10-18 15:29:00,88.0,73.3,29.94,South,180,1.0,6.0,62,0.00,,,0.01,724,Wunderground v.1.15,2013-10-18 19:29:00,
2013-10-18 15:35:00,88.9,74.2,29.93,South,180,0.0,6.0,62,0.00,,,0.01,661,Wunderground v.1.15,2013-10-18 19:35:00,
2013-10-18 15:41:00,89.3,73.6,29.93,South,180,0.0,6.0,60,0.00,,,0.01,130,Wunderground v.1.15,2013-10-18 19:41:00,
2013-10-18 15:46:00,88.9,73.2,29.93,South,180,1.0,6.0,60,0.00,,,0.01,135,Wunderground v.1.15,2013-10-18 19:46:00,
2013-10-18 15:51:00,88.2,73.0,29.93,South,175,2.0,6.0,61,0.00,,,0.01,132,Wunderground v.1.15,2013-10-18 19:51:00,
2013-10-18 15:57:00,87.8,74.6,29.93,SSE,148,3.0,6.0,65,0.00,,,0.01,693,Wunderground v.1.15,2013-10-18 19:57:00,
2013-10-18 16:03:00,88.3,73.6,29.93,SE,144,2.0,6.0,62,0.00,,,0.01,657,Wunderground v.1.15,2013-10-18 20:03:00,
2013-10-18 16:09:00,89.1,72.9,29.93,SE,144,1.0,6.0,59,0.00,,,0.01,661,Wunderground v.1.15,2013-10-18 20:09:00,
2013-10-18 16:14:00,89.2,72.5,29.93,SE,144,1.0,6.0,58,0.00,,,0.01,652,Wunderground v.1.15,2013-10-18 20:14:00,
2013-10-18 16:20:00,88.7,73.0,29.93,SE,133,3.0,3.0,60,0.00,,,0.01,626,Wunderground v.1.15,2013-10-18 20:20:00,
2013-10-18 16:26:00,88.7,72.0,29.93,SE,128,4.0,6.0,58,0.00,,,0.01,577,Wunderground v.1.15,2013-10-18 20:26:00,
2013-10-18 16:31:00,88.5,72.8,29.93,SE,128,4.0,6.0,60,0.00,,,0.01,559,Wunderground v.1.15,2013-10-18 20:31:00,
2013-10-18 16:37:00,88.6,72.4,29.93,East,85,4.0,7.0,59,0.00,,,0.01,573,Wunderground v.1.15,2013-10-18 20:37:00,
2013-10-18 16:42:00,88.9,72.2,29.93,East,84,5.0,6.0,58,0.00,,,0.01,580,Wunderground v.1.15,2013-10-18 20:42:00,
2013-10-18 16:48:00,89.2,71.5,29.93,ESE,107,5.0,8.0,56,0.00,,,0.01,554,Wunderground v.1.15,2013-10-18 20:48:00,
2013-10-18 16:54:00,89.2,72.5,29.93,SE,138,5.0,8.0,58,0.00,,,0.01,527,Wunderground v.1.15,2013-10-18 20:54:00,
2013-10-18 16:59:00,89.0,72.8,29.93,SE,138,4.0,8.0,59,0.00,,,0.01,513,Wunderground v.1.15,2013-10-18 20:59:00,
2013-10-18 17:05:00,89.2,75.0,29.93,SSW,205,3.0,6.0,63,0.00,,,0.01,483,Wunderground v.1.15,2013-10-18 21:05:00,
2013-10-18 17:11:00,88.1,74.8,29.93,SSW,207,6.0,6.0,65,0.00,,,0.01,434,Wunderground v.1.15,2013-10-18 21:11:00,
2013-10-18 17:16:00,87.8,73.6,29.93,SSW,209,6.0,6.0,63,0.00,,,0.01,397,Wunderground v.1.15,2013-10-18 21:16:00,
2013-10-18 17:22:00,87.8,73.2,29.93,SSW,211,6.0,6.0,62,0.00,,,0.01,364,Wunderground v.1.15,2013-10-18 21:22:00,
2013-10-18 17:28:00,87.9,74.2,29.93,SSW,211,5.0,6.0,64,0.00,,,0.01,181,Wunderground v.1.15,2013-10-18 21:28:00,
2013-10-18 17:34:00,87.6,74.4,29.93,SSW,211,5.0,6.0,65,0.00,,,0.01,292,Wunderground v.1.15,2013-10-18 21:34:00,
2013-10-18 17:40:00,87.5,73.8,29.93,SSW,211,4.0,4.0,64,0.00,,,0.01,276,Wunderground v.1.15,2013-10-18 21:40:00,
2013-10-18 17:45:00,87.5,74.7,29.93,SSW,211,3.0,6.0,66,0.00,,,0.01,118,Wunderground v.1.15,2013-10-18 21:45:00,
2013-10-18 17:51:00,87.1,74.4,29.93,SSW,208,3.0,6.0,66,0.00,,,0.01,229,Wunderground v.1.15,2013-10-18 21:51:00,
2013-10-18 17:57:00,86.9,75.1,29.93,SSW,202,4.0,6.0,68,0.00,,,0.01,200,Wunderground v.1.15,2013-10-18 21:57:00,
2013-10-18 18:03:00,86.6,74.3,29.93,SSW,194,5.0,6.0,67,0.00,,,0.01,165,Wunderground v.1.15,2013-10-18 22:03:00,
2013-10-18 18:09:00,86.5,74.2,29.93,SSE,166,5.0,7.0,67,0.00,,,0.01,130,Wunderground v.1.15,2013-10-18 22:09:00,
2013-10-18 18:14:00,86.3,74.0,29.93,SSE,157,5.0,6.0,67,0.00,,,0.01,72,Wunderground v.1.15,2013-10-18 22:14:00,
2013-10-18 18:20:00,86.1,74.3,29.93,SSE,150,6.0,6.0,68,0.00,,,0.01,70,Wunderground v.1.15,2013-10-18 22:20:00,
2013-10-18 18:26:00,85.8,74.4,29.94,SSE,148,8.0,9.0,69,0.00,,,0.01,53,Wunderground v.1.15,2013-10-18 22:26:00,
2013-10-18 18:31:00,85.4,74.1,29.94,SE,133,9.0,9.0,69,0.00,,,0.01,37,Wunderground v.1.15,2013-10-18 22:31:00,
2013-10-18 18:37:00,84.7,73.8,29.94,SE,128,9.0,11.0,70,0.00,,,0.01,21,Wunderground v.1.15,2013-10-18 22:37:00,
2013-10-18 18:42:00,84.1,73.7,29.94,SE,128,8.0,11.0,71,0.00,,,0.01,11,Wunderground v.1.15,2013-10-18 22:42:00,
2013-10-18 18:48:00,83.6,73.6,29.95,SE,133,8.0,11.0,72,0.00,,,0.01,5,Wunderground v.1.15,2013-10-18 22:48:00,
2013-10-18 18:54:00,83.2,73.2,29.95,ESE,115,6.0,8.0,72,0.00,,,0.01,0,Wunderground v.1.15,2013-10-18 22:54:00,
2013-10-18 19:00:00,82.8,73.3,29.95,ESE,119,6.0,6.0,73,0.00,,,0.01,0,Wunderground v.1.15,2013-10-18 23:00:00,
2013-10-18 19:05:00,82.5,73.0,29.95,ESE,106,6.0,6.0,73,0.00,,,0.01,0,Wunderground v.1.15,2013-10-18 23:05:00,
2013-10-18 19:11:00,82.2,73.1,29.96,ESE,117,5.0,8.0,74,0.00,,,0.01,0,Wunderground v.1.15,2013-10-18 23:11:00,
2013-10-18 19:17:00,82.0,73.3,29.96,SE,128,6.0,13.0,75,0.00,,,0.01,0,Wunderground v.1.15,2013-10-18 23:17:00,
2013-10-18 19:23:00,81.7,73.0,29.96,ESE,110,6.0,7.0,75,0.00,,,0.01,0,Wunderground v.1.15,2013-10-18 23:23:00,
2013-10-18 19:29:00,81.4,73.1,29.96,ESE,116,6.0,9.0,76,0.00,,,0.01,0,Wunderground v.1.15,2013-10-18 23:29:00,
2013-10-18 19:34:00,81.2,73.3,29.97,ESE,118,6.0,7.0,77,0.00,,,0.01,0,Wunderground v.1.15,2013-10-18 23:34:00,
2013-10-18 19:40:00,80.9,73.4,29.97,ESE,117,6.0,6.0,78,0.00,,,0.01,0,Wunderground v.1.15,2013-10-18 23:40:00,
2013-10-18 19:46:00,80.6,73.5,29.97,SE,128,7.0,7.0,79,0.00,,,0.01,0,Wunderground v.1.15,2013-10-18 23:46:00,
2013-10-18 19:52:00,80.3,73.6,29.97,SE,128,7.0,9.0,80,0.00,,,0.01,0,Wunderground v.1.15,2013-10-18 23:52:00,
2013-10-18 19:57:00,80.1,73.7,29.97,SE,128,7.0,9.0,81,0.00,,,0.01,0,Wunderground v.1.15,2013-10-18 23:57:00,
2013-10-18 20:02:00,79.9,73.5,29.97,SE,128,6.0,7.0,81,0.00,,,0.01,0,Wunderground v.1.15,2013-10-19 00:02:00,
2013-10-18 20:07:00,79.7,73.3,29.97,ESE,123,6.0,9.0,81,0.00,,,0.01,0,Wunderground v.1.15,2013-10-19 00:07:00,
2013-10-18 20:13:00,79.4,73.4,29.98,SE,128,6.0,6.0,82,0.00,,,0.01,0,Wunderground v.1.15,2013-10-19 00:13:00,
2013-10-18 20:18:00,79.3,73.3,29.98,ESE,121,6.0,8.0,82,0.00,,,0.01,0,Wunderground v.1.15,2013-10-19 00:18:00,
2013-10-18 20:23:00,79.1,73.5,29.98,SE,128,6.0,9.0,83,0.00,,,0.01,0,Wunderground v.1.15,2013-10-19 00:23:00,
2013-10-18 20:29:00,78.9,73.3,29.98,ESE,119,6.0,9.0,83,0.00,,,0.01,0,Wunderground v.1.15,2013-10-19 00:29:00,
2013-10-18 20:34:00,78.8,73.6,29.98,SE,128,6.0,8.0,84,0.00,,,0.01,0,Wunderground v.1.15,2013-10-19 00:34:00,
2013-10-18 20:40:00,78.7,73.5,29.98,SE,128,6.0,6.0,84,0.00,,,0.01,0,Wunderground v.1.15,2013-10-19 00:40:00,
2013-10-18 20:46:00,78.5,73.6,29.98,ESE,118,5.0,8.0,85,0.00,,,0.01,0,Wunderground v.1.15,2013-10-19 00:46:00,
2013-10-18 20:52:00,78.4,73.5,29.98,ESE,118,6.0,8.0,85,0.00,,,0.01,0,Wunderground v.1.15,2013-10-19 00:52:00,
2013-10-18 20:58:00,78.3,73.4,29.98,ESE,122,5.0,8.0,85,0.00,,,0.01,0,Wunderground v.1.15,2013-10-19 00:58:00,
2013-10-18 21:03:00,78.2,73.3,29.98,SE,128,4.0,7.0,85,0.00,,,0.01,0,Wunderground v.1.15,2013-10-19 01:03:00,
2013-10-18 21:08:00,78.1,73.6,29.99,SE,133,5.0,7.0,86,0.00,,,0.01,0,Wunderground v.1.15,2013-10-19 01:08:00,
2013-10-18 21:14:00,78.0,73.5,29.99,SE,128,5.0,8.0,86,0.00,,,0.01,0,Wunderground v.1.15,2013-10-19 01:14:00,
2013-10-18 21:20:00,77.9,73.4,29.99,SE,128,5.0,7.0,86,0.00,,,0.01,0,Wunderground v.1.15,2013-10-19 01:20:00,
2013-10-18 21:25:00,77.9,73.4,29.99,SE,128,6.0,7.0,86,0.00,,,0.01,0,Wunderground v.1.15,2013-10-19 01:25:00,
2013-10-18 21:31:00,77.8,73.6,29.99,SE,128,5.0,8.0,87,0.00,,,0.01,0,Wunderground v.1.15,2013-10-19 01:31:00,
2013-10-18 21:37:00,77.8,73.6,29.99,SE,138,6.0,8.0,87,0.00,,,0.01,0,Wunderground v.1.15,2013-10-19 01:37:00,
2013-10-18 21:42:00,77.6,73.4,29.99,SE,138,5.0,6.0,87,0.00,,,0.01,0,Wunderground v.1.15,2013-10-19 01:42:00,
2013-10-18 21:48:00,77.5,73.3,30.00,SE,138,5.0,6.0,87,0.00,,,0.01,0,Wunderground v.1.15,2013-10-19 01:48:00,
2013-10-18 21:53:00,77.4,73.2,30.00,SE,138,5.0,6.0,87,0.00,,,0.01,0,Wunderground v.1.15,2013-10-19 01:53:00,
2013-10-18 21:59:00,77.4,73.6,30.00,SE,138,6.0,8.0,88,0.00,,,0.01,0,Wunderground v.1.15,2013-10-19 01:59:00,
2013-10-18 22:05:00,77.4,73.6,30.00,SE,138,5.0,6.0,88,0.00,,,0.01,0,Wunderground v.1.15,2013-10-19 02:05:00,
2013-10-18 22:11:00,77.3,73.5,30.00,SE,128,5.0,7.0,88,0.00,,,0.01,0,Wunderground v.1.15,2013-10-19 02:11:00,
2013-10-18 22:16:00,77.3,73.5,30.00,SE,138,6.0,9.0,88,0.00,,,0.01,0,Wunderground v.1.15,2013-10-19 02:16:00,
2013-10-18 22:22:00,77.3,73.5,30.00,SE,138,5.0,6.0,88,0.00,,,0.01,0,Wunderground v.1.15,2013-10-19 02:22:00,
2013-10-18 22:28:00,77.3,73.8,30.00,SE,138,4.0,6.0,89,0.00,,,0.01,0,Wunderground v.1.15,2013-10-19 02:28:00,
2013-10-18 22:33:00,77.2,73.7,30.00,SE,138,4.0,6.0,89,0.00,,,0.01,0,Wunderground v.1.15,2013-10-19 02:33:00,
2013-10-18 22:39:00,77.1,73.6,30.00,SE,143,5.0,7.0,89,0.00,,,0.01,0,Wunderground v.1.15,2013-10-19 02:39:00,
2013-10-18 22:45:00,77.1,73.6,30.00,SE,138,6.0,6.0,89,0.00,,,0.01,0,Wunderground v.1.15,2013-10-19 02:45:00,
2013-10-18 22:50:00,77.1,73.6,30.00,SE,145,5.0,7.0,89,0.00,,,0.01,0,Wunderground v.1.15,2013-10-19 02:50:00,
2013-10-18 22:56:00,77.1,73.6,30.00,SE,145,6.0,7.0,89,0.00,,,0.01,0,Wunderground v.1.15,2013-10-19 02:56:00,
2013-10-18 23:02:00,77.0,73.5,30.00,SE,142,6.0,7.0,89,0.00,,,0.01,0,Wunderground v.1.15,2013-10-19 03:02:00,
2013-10-18 23:08:00,77.1,73.6,30.00,SSE,153,5.0,7.0,89,0.00,,,0.01,0,Wunderground v.1.15,2013-10-19 03:08:00,
2013-10-18 23:14:00,77.2,73.7,30.00,SSE,149,6.0,7.0,89,0.00,,,0.01,0,Wunderground v.1.15,2013-10-19 03:14:00,
2013-10-18 23:20:00,77.3,73.8,30.00,SSE,155,6.0,6.0,89,0.00,,,0.01,0,Wunderground v.1.15,2013-10-19 03:20:00,
2013-10-18 23:25:00,77.4,73.9,30.00,SSE,157,7.0,9.0,89,0.00,,,0.01,0,Wunderground v.1.15,2013-10-19 03:25:00,
2013-10-18 23:30:00,77.6,74.1,29.99,SSE,157,8.0,10.0,89,0.00,,,0.01,0,Wunderground v.1.15,2013-10-19 03:30:00,
2013-10-18 23:36:00,77.5,73.7,30.00,SSE,157,9.0,10.0,88,0.00,,,0.01,0,Wunderground v.1.15,2013-10-19 03:36:00,
2013-10-18 23:42:00,77.5,73.7,30.00,SSE,157,8.0,8.0,88,0.00,,,0.01,0,Wunderground v.1.15,2013-10-19 03:42:00,
2013-10-18 23:47:00,77.5,73.7,30.00,SSE,151,7.0,8.0,88,0.00,,,0.01,0,Wunderground v.1.15,2013-10-19 03:47:00,
2013-10-18 23:53:00,77.3,73.1,29.99,SSE,155,7.0,7.0,87,0.00,,,0.01,0,Wunderground v.1.15,2013-10-19 03:53:00,
2013-10-18 23:59:00,77.2,73.0,29.99,SSE,154,6.0,8.0,87,0.00,,,0.01,0,Wunderground v.1.15,2013-10-19 03:59:00,